Location: Bremen
(53.0793°N, 8.8017°E)
Time: 12:50:33
(UTC+02:00)

Transit 2A Rocket - Pass Details

Date: 24 June 2024
Orbit: 582 x 910 km, 66.7° (Epoch: 19 July)

Event Time Altitude Azimuth Distance (km) Brightness Sun altitude
Rises 23:19:30 0° 256° (WSW) 3,225 8.4 -8.6°
Reaches altitude 10° 23:22:01 10° 266° (W) 2,355 7.9 -8.8°
Maximum altitude 23:26:58 34° 331° (NNW) 1,349 7.1 -9.2°
Drops below altitude 10° 23:32:19 10° 35° (NE) 2,538 8.1 -9.6°
Sets 23:35:08 0° 45° (NE) 3,512 8.7 -9.7°
